| Date | Time | Temp. (oF) | Dew Point (oF) | Rel. Hum. (%) | Press. (in.) | Wind Dir. | Wind Speed (mph) | Hourly Rainfall (in.) |
|
|---|---|---|---|---|---|---|---|---|---|
| 1 | 05/22 | 00:00 | 57 | 57 | 100 | 29.90 | NE | 3 | 0.00 |
| 2 | 05/21 | 23:00 | 57 | 57 | 100 | 29.91 | NE | 2 | 0.01 |
| 3 | 05/21 | 22:00 | 57 | 57 | 100 | 29.93 | NE | 1 | 0.01 |
| 4 | 05/21 | 21:00 | 57 | 57 | 100 | 29.93 | E | 4 | 0.00 |
| 5 | 05/21 | 20:00 | 57 | 57 | 100 | 29.94 | NE | 2 | 0.00 |
| 6 | 05/21 | 19:00 | 57 | 57 | 100 | 29.95 | ESE | 5 | 0.00 |
| 7 | 05/21 | 18:00 | 57 | 57 | 100 | 29.96 | NNE | 5 | 0.04 |
| 8 | 05/21 | 17:00 | 57 | 57 | 100 | 29.97 | E | 6 | 0.10 |
| 9 | 05/21 | 16:00 | 57 | 57 | 100 | 30.00 | ESE | 7 | 0.07 |
| 10 | 05/21 | 15:00 | 57 | 57 | 100 | 30.03 | NNE | 4 | 0.00 |
| 11 | 05/21 | 14:00 | 58 | 58 | 100 | 30.03 | E | 7 | 0.00 |
| 12 | 05/21 | 13:00 | 58 | 58 | 100 | 30.03 | NE | 6 | 0.00 |
| 13 | 05/21 | 12:00 | 57 | 57 | 100 | 30.05 | NNE | 2 | 0.00 |
| 14 | 05/21 | 11:00 | 56 | 55 | 100 | 30.05 | NNE | 1 | 0.00 |
| 15 | 05/21 | 10:00 | 55 | 54 | 100 | 30.06 | NE | 6 | 0.01 |
| 16 | 05/21 | 09:00 | 54 | 54 | 100 | 30.08 | ENE | 7 | 0.01 |
| 17 | 05/21 | 08:00 | 54 | 54 | 100 | 30.07 | WNW | 4 | 0.12 |
| 18 | 05/21 | 07:00 | 53 | 53 | 100 | 30.07 | NE | 5 | 0.06 |
| 19 | 05/21 | 06:00 | 53 | 53 | 100 | 30.05 | ESE | 6 | 0.01 |
| 20 | 05/21 | 05:00 | 53 | 53 | 100 | 30.05 | NE | 5 | 0.03 |
| 21 | 05/21 | 04:00 | 54 | 53 | 99 | 30.06 | ENE | 2 | 0.06 |
| 22 | 05/21 | 03:00 | 54 | 53 | 98 | 30.06 | NE | 2 | 0.02 |
| 23 | 05/21 | 02:00 | 55 | 54 | 97 | 30.07 | ENE | 2 | 0.02 |
| 24 | 05/21 | 01:00 | 56 | 54 | 94 | 30.08 | E | 4 | 0.00 |